Regional Weather Roundup
Issued by NWS Grand Forks, ND

Home | Current Version | Previous Version | Graphics & Text | Print | Product List | Glossary On
Versions: 1 2 3 4 5 6 7 8 9 10 11 12 13 14 15 16 17 18 19 20 21 22 23 24 25 26 27 28 29 30 31 32 33 34 35 36 37 38 39 40 41 42 43 44 45 46 47 48 49 50
000
ASUS43 KFGF 241510
RWRFGF
PRAIRIE TO PINES  WEATHER ROUNDUP
NATIONAL WEATHER SERVICE EASTERN NORTH DAKOTA/GRAND FORKS ND
1000 AM CDT MON APR 24 2017

 **SATELLITE DATA USED TO AUGMENT SKY COVER AT AUTOMATED STATIONS**
 *****  WEATHER ACROSS EASTERN NORTH DAKOTA  *****

CITY           SKY/WX    TMP DP  RH WIND       PRES   REMARKS
GRAND FORKS    LGT RAIN  36  34  92 E16       29.67F
GRAND FRKS AFB LGT RAIN  33  32  96 E10       29.68R
DEVILS LAKE    FLURRIES  32  30  92 NE15      29.70R WCI  22
FARGO          FAIR      44  34  67 E9        29.60F
WAHPETON ARPT  FAIR      50  37  62 SE14      29.57F
$$

 ***** WEATHER ACROSS CENTRAL AND WESTERN NORTH DAKOTA  *****

CITY           SKY/WX    TMP DP  RH WIND       PRES   REMARKS
BISMARCK       CLOUDY    35  32  88 N10       29.67R
MINOT          LGT SNOW  30  27  88 N10       29.72S FOG     WCI  21
JAMESTOWN      LGT RAIN  34  32  92 N12       29.61F
MINOT AFB      NOT AVBL
GARRISON         N/A     31  28  89 NE6       29.69R
WILLISTON      CLOUDY    32  28  85 NE10      29.73F WCI  24
DICKINSON      CLOUDY    29  28  96 N6        29.65R WCI  23
HETTINGER      CLOUDY    33  31  92 N9        29.66S
$$

 *****  OTHER AIRPORT OBSERVATIONS IN OUR AREA  *****

CITY           SKY/WX    TMP DP  RH WIND       PRES   REMARKS
WALHALLA       NOT AVBL
GRAFTON AIRPOR LGT SNOW  34  32  93 E15       29.74F WCI  24
VALLEY CITY AR LGT RAIN  34  34 100 NE10      29.62F
CANDO          NOT AVBL
CAVALIER APRT  LGT SNOW  34  30  86 E15       29.75F WCI  24
GWINNER        PTSUNNY   41  37  87 MISG      29.56S
SHEYENNE NWR     N/A     42  34  73 NE7       29.95S
ROLLA          MIX PCPN  28  21  74 NE20      29.73F WCI  15
 ***** THE ABOVE OBSERVATIONS ARE NON NWS ARE NOT QUALITY
       CONTROLLED AND MAY MIS-REPORT RAIN FOR SNOW...
$$

  *****  WEATHER ACROSS NORTHERN MINNESOTA  *****

CITY           SKY/WX    TMP DP  RH WIND       PRES   REMARKS
FLAG ISLAND    LGT SNOW  30  28  93 E13       29.87R VSB 1   WCI  20
WARROAD        SNOW      34  28  80 E21G26    29.81F VSB 1/4 WCI  22
ROSEAU         LGT SNOW  34  28  80 E13       29.78F WCI  25
HALLOCK        CLOUDY    36  30  80 E17       29.75F
THF RVR FALLS  NOT AVBL
BAUDETTE       CLOUDY    33  28  81 E15G22    29.83R WCI  23
WASKISH        PTSUNNY   32  28  86 E15       29.78F WCI  22
CROOKSTON      MIX PCPN  34  34 100 E20       29.66F WCI  22
STEPHEN NDAWN    N/A     36  30  80 E17         N/A
GREENBUSH NDAW   N/A     32  32 100 E14         N/A  WCI  22
$$
  *****  WEATHER ACROSS CENTRAL AND WEST MINNESOTA  *****

CITY           SKY/WX    TMP DP  RH WIND       PRES   REMARKS
FOSSTON        FAIR      37  30  75 E10G18    29.68F
BEMIDJI        FAIR      37  32  83 E15       29.71F
PARK RAPIDS    FAIR      43  31  62 E10       29.67F
ELBOW LAKE     FAIR      54  38  55 SE17G23   29.59F
WADENA         FAIR      48  36  61 SE14G20   29.64F
DETROIT LAKES  FAIR      43  34  70 SE10G16   29.62F
MOORHEAD       FAIR      45  34  65 E8        29.61S
FERGUS FALLS   FAIR      54  37  54 SE14      29.59F
MORRIS MN      FAIR      57  39  51 S17G24    29.58F
STAPLES        FAIR      48  36  61 SE9       29.66F
$$
  *****  WEATHER ELSEWHERE ACROSS MINNESOTA  *****

CITY           SKY/WX    TMP DP  RH WIND       PRES   REMARKS
DULUTH         FAIR      35  27  72 E23G35    29.85F WCI  23
INTRNTL FALLS  CLOUDY    32  26  78 E15G24    29.84F WCI  22
ELY            FAIR      34  27  75 E14G21    29.88F WCI  24
CLOQUET        FAIR      37  27  65 E17G24    29.83F
WHEATON        FAIR      57  37  47 SE13G18   29.57F
BRAINERD       FAIR      48  37  65 SE10G17   29.70F
HIBBING        FAIR      37  30  75 SE14G24   29.81F
ALEXANDRIA     FAIR      56  37  49 S14       29.63F
SAINT CLOUD    FAIR      59  38  45 S16G23    29.70F
MINNEAPOLIS    PTSUNNY   61  35  37 S15       29.77F
$$

  *****  WEATHER ACROSS SOUTH DAKOTA  *****

CITY           SKY/WX    TMP DP  RH WIND       PRES   REMARKS
SIOUX FALLS    CLOUDY    57  39  51 S24G32    29.61F
BROOKINGS      FAIR      55  37  50 S26G36    29.57F
WATERTOWN      FAIR      54  37  52 S22G30    29.55F
HURON          FAIR      59  38  45 S23G31    29.53S
SISSETON         N/A     59  39  47 SW16G24   29.54F
ABERDEEN       FAIR      51  40  65 NW7       29.53R
MITCHELL       FAIR      58  38  47 S16G23    29.56F
PIERRE         LGT RAIN  39  37  92 NW18G26   29.55R
MOBRIDGE       CLOUDY    39  34  82 N16       29.55F
RAPID CITY     CLOUDY    42  40  92 N20G25    29.61S FOG
$$

  *****  SOME WEATHER IN NEARBY STATES *****

CITY           SKY/WX    TMP DP  RH WIND       PRES   REMARKS
GLASGOW MT     CLOUDY    34  31  88 E6        29.70R
GREAT FALLS MT CLOUDY    47  35  63 SW9       29.64S
CHEYENNE WY    FAIR      50  29  44 NW12G20   29.74R
SCOTTSBLUFF NE FAIR      57  41  55 NW16G22   29.67S
OMAHA NE       PTSUNNY   61  37  41 S24G33    29.72F
DES MOINES IA  CLOUDY    65  34  31 S20G28    29.83F
DAVENPORT IA     N/A     64  31  28 MISG      29.97F
CHICAGO IL     PTSUNNY   60  39  45 E8        30.01F
EAU CLAIRE WI  FAIR      52  37  56 SE8       29.87F
LA CROSSE WI   FAIR      59  39  47 S9        29.89F
$$

  *****  SOME NATIONAL WEATHER *****

CITY           SKY/WX    TMP DP  RH WIND       PRES   REMARKS
LA GUARDIA NY  CLOUDY    56  43  61 NE6       30.17F
RALEIGH NC     HVY RAIN  54  53  97 NE10      29.90R FOG
ATLANTA GA     DRIZZLE   54  52  93 NE9       29.78S FOG
NEW ORLEANS LA FAIR      67  51  56 NW13      29.95R
OKLAHOMA CITY  FAIR      62  43  49 S21G29    29.86F
ALBUQUERQUE NM FAIR      62  24  23 SW13      29.91F
SALT LAKE CITY CLOUDY    53  40  61 S13       29.69S
LOS ANGELES CA PTSUNNY   62  55  77 SW6       29.92R
BOISE ID       LGT RAIN  46  42  86 N10       29.72R
SEATTLE WA     LGT RAIN  46  43  89 NE6       29.72F
$$

*** WEATHER ACROSS MANITOBA...SASKATCHEWAN AND ONTARIO ***
                ***ONTARIO***

CITY           SKY/WX    TMP DP  RH WIND       PRES   REMARKS
GERALDTON      CLOUDY    32  10  40 E12G20    30.18S WCI  23
THUNDER BAY    CLOUDY    34  30  86 E20G25    30.08F WCI  22
SIOUX LOOKOUT  CLOUDY    32  10  40 SE8G25    30.02F WCI  25
TORONTO        SUNNY     48  32  53 E14       30.19R
BIG TROUT LK   SUNNY     14   0  52 S5        30.31F WCI   6
PICKLE LAKE    PTSUNNY   25   9  50 E9        30.14F WCI  15
DRYDEN         LGT SNOW  30  23  74 E15G22    29.95F WCI  19
KENORA         LGT SNOW  30  25  80 E16G25    29.88F WCI  19
$$
                *** MANITOBA***

CITY           SKY/WX    TMP DP  RH WIND       PRES   REMARKS
BRANDON        CLOUDY    34  16  47 E23G37    29.81F WCI  22
DAUPHIN        CLOUDY    32  19  59 E18       29.94F WCI  20
ISLAND LAKE    PTSUNNY   21   5  49 E6G22     30.22S WCI  14
PILOT MOUND      N/A     28  21  74 NE18G25     N/A  WCI  16
THE PAS        CLOUDY    27   5  39 SE13G24   30.12S WCI  16
THOMPSON       PTSUNNY   16  -4  41 NE8       30.27S WCI   5
WINNIPEG       FLURRIES  34  18  51 E16       29.84F WCI  23
LYNN LAKE      SUNNY      9  -4  56 E8        30.22S WCI  -4
CHURCHILL      MOSUNNY   -6 -11  77 W8        30.44S WCI -21
GILLAM         MOSUNNY    9  -8  47 E7        30.37F WCI  -3
$$
                ***SASKATCHEWAN***

CITY           SKY/WX    TMP DP  RH WIND       PRES   REMARKS
ESTEVAN        SNOW      28  25  86 E12G17    29.78S VSB 3/8 WCI  18
KINDERSLEY     CLOUDY    30  30 100 E18       29.72R WCI  18
LLOYDMINSTER   FRZ RAIN  30  30 100 SE14      29.76S WCI  20
PRINCE ALBERT  LGT SNOW  28  25  86 E15G22    29.92S FOG     WCI  17
REGINA         FLURRIES  28  23  80 E21G29    29.81F WCI  15
YORKTON        LGT SNOW  28  25  86 E13G18    29.90S WCI  18
N. BATTLEFORD  CLOUDY    32  32 100 SE16      29.82S WCI  21
LA RONGE       CLOUDY    27  16  63 E10G17    30.01F WCI  17
SASKATOON      CLOUDY    30  27  86 SE18      29.85S WCI  18
SWIFT CURRENT  CLOUDY    28  28 100 E13G18    29.69S FOG     WCI  18
$$
NOTE: THESE ARE AUTOMATED STATIONS WITH LIMITED QUALITY CONTROL
      "FAIR" INDICATES FEW OR NO CLOUDS BELOW 12,000 FEET WITH NO
      SIGNIFICANT WEATHER AND/OR OBSTRUCTIONS TO VISIBILITY.
      SKY/WX - SKY CONDITION AND SIGNIFICANT WEATHER.
      TMP - AIR TEMPERATURE.    DP   - DEWPOINT TEMPERATURE.
      RH  - RELATIVE HUMIDITY.  PRES - PRESSURE.
      HX  - HEAT INDEX.         WCI  - WIND CHILL INDEX.
$




USA.gov is the U.S. government's official web portal to all federal, state and local government web resources and services.